CST,Max TemperatureF,Mean TemperatureF,Min TemperatureF,Max Dew PointF,MeanDew PointF,Min DewpointF,Max Humidity, Mean Humidity, Min Humidity, Max Sea Level PressureIn, Mean Sea Level PressureIn, Min Sea Level PressureIn, Max VisibilityMiles, Mean VisibilityMiles, Min VisibilityMiles, Max Wind SpeedMPH, Mean Wind SpeedMPH, Max Gust SpeedMPH,PrecipitationIn, CloudCover, Events, WindDirDegrees
2013-11-1,42,34,26,35,30,26,99,86,67,29.86,29.62,29.41,10,7,3,24,8,31,0.00,4,,298
2013-11-2,46,33,20,32,27,19,99,84,56,30.02,29.97,29.86,10,8,0,8,3,,0.00,1,Snow,235
2013-11-3,48,36,25,33,31,24,96,74,52,30.01,29.87,29.75,10,10,7,22,9,33,0.00,3,,132
2013-11-4,45,38,29,37,31,22,96,76,59,30.02,29.80,29.70,10,10,5,18,12,25,0.01,6,Rain-Snow,212
2013-11-5,32,28,25,22,20,18,81,70,62,30.16,30.10,30.03,10,10,10,14,9,20,0.00,1,,249
2013-11-6,31,22,12,21,16,10,93,75,55,30.12,30.07,30.04,10,8,5,10,6,,0.00,2,,293
2013-11-7,34,24,14,22,17,10,96,77,40,30.17,30.13,30.09,10,8,3,13,5,17,0.00,2,,266
2013-11-8,34,24,15,32,26,13,98,91,75,30.09,29.82,29.56,10,5,0,18,5,26,0.02,6,Snow,122
2013-11-9,32,32,31,32,31,29,100,94,87,30.19,29.84,29.57,10,5,1,23,10,31,0.00,8,Snow,288
2013-11-10,36,25,14,30,23,8,94,82,66,30.25,30.17,30.09,10,8,1,18,11,25,0.00,5,Snow,270
2013-11-11,13,8,3,8,5,-2,86,75,66,30.68,30.51,30.26,10,9,2,18,12,23,0.00,7,Snow,313
2013-11-12,30,15,0,12,7,-3,87,64,40,30.68,30.50,30.18,10,10,7,13,7,20,0.00,0,,217
2013-11-13,45,32,20,34,26,13,86,72,59,30.18,29.86,29.76,10,8,4,18,8,22,0.00,0,,226
2013-11-14,41,36,30,34,31,28,96,85,69,29.78,29.74,29.70,10,8,5,9,4,,0.00,7,,253
2013-11-15,46,37,28,39,33,27,97,83,56,29.74,29.64,29.46,10,8,3,14,7,23,0.00,4,Rain,188
2013-11-16,43,38,34,39,36,33,100,89,75,29.45,29.34,29.25,10,6,0,16,9,26,0.03,6,Rain,135
2013-11-17,39,30,22,39,30,18,100,93,80,29.80,29.47,29.25,10,7,1,25,11,36,0.19,8,Rain-Snow,302
2013-11-18,23,20,17,19,17,14,90,82,75,30.17,30.06,29.81,10,10,7,22,14,29,0.00,7,Snow,295
2013-11-19,42,30,18,31,22,16,92,76,63,30.17,29.89,29.65,10,8,5,23,11,30,0.00,2,,145
2013-11-20,43,36,27,32,29,26,96,75,60,30.02,29.83,29.65,10,7,3,18,9,28,0.00,2,,312
2013-11-21,27,14,2,26,11,-1,95,84,73,30.53,30.35,30.03,10,7,2,17,12,23,0.00,6,Snow,308
2013-11-22,15,7,-1,10,2,-5,87,79,57,30.67,30.48,30.38,10,8,2,21,8,24,0.00,5,Snow,273
2013-11-23,8,0,-7,-1,-6,-11,86,79,61,30.80,30.71,30.56,10,10,10,12,7,,0.00,0,,289
2013-11-24,37,19,1,26,11,-2,82,65,52,30.54,30.04,29.69,10,9,7,21,10,29,0.00,5,,192
2013-11-25,34,26,18,28,22,14,88,78,68,30.04,29.88,29.71,10,8,2,24,15,33,0.00,8,Snow,293
2013-11-26,18,12,5,14,5,2,89,78,66,30.37,30.24,30.03,10,7,2,29,16,41,0.00,7,Snow,310
2013-11-27,15,8,1,10,7,-2,90,83,75,30.36,30.15,30.00,10,8,1,14,5,18,0.00,8,Snow,147
2013-11-28,16,6,-4,13,6,-8,91,84,75,30.43,30.27,30.05,10,7,2,13,5,,0.00,5,Snow,309
2013-11-29,25,10,-5,17,10,-10,90,78,67,30.42,30.22,29.98,10,10,7,18,6,24,0.00,3,,147
2013-11-30,25,22,18,21,19,16,96,86,74,30.17,30.06,29.95,10,8,5,10,5,,0.00,6,,299